NOAA 16 DEB, 42340

Orbit data source: Space-Track

NOAA 16 DEB, 42340 is space debris in SSO originally from a launch on Thu, 21 Sep 2000 UTC launched from the Air Force Western Test Range (AFWTR). Debris objects in space refer to the collection of defunct objects orbiting the Earth. Examples of debris include non-operational satellites, rocket bodies, and fragments generated from explosions, collisions, or faulty payload assembly.

Loading next visibility...
Identifier
42340, 2000-055QG
Orbit
SSO
Country
Flag of USUS
Related business
Manufacturer
Unknown
Mission
Spacecraft
Bus & Motor
Unknown
Mass
Unknown
Launch date (UTC)
2000-09-21 (26 years ago)
Launch vehicle
Unknown
Launch site
Air Force Western Test Range (AFWTR)
Object type
Payload
Rocket body
Debris
Shape & HBR
Unknown shape, 0.1 m
Radar Cross Section
Small (<0.1 m²)

Expand to show TLE details & history
Last TLE update: 1 week ago

TLE from 1 week ago
0 NOAA 16 DEB
1 42340U 00055QG  26112.22884142  .00008796  00000-0  23632-2 0  9994
2 42340  99.0162 274.2934 0024699  58.4990 301.8610 14.48142699523926
Epoch: 2026-04-22T05:29Z
TLE epoch observation values (Epoch: 2026-04-22T05:29:31.898Z)
Latitude
-0°
Longitude
-18.38278°
Altitude
725.424 km
Speed
7.497 km/s
True Right ascension
18h 17m 10s
True Declination
0° 00' 00"
Sunlit
Object was in daylight at epoch
Visualization orbit readout
Latitude
Unknown
Longitude
Unknown
Altitude
Unknown
Speed
Unknown
Apparent Right ascension
Unknown
Apparent Declination
Unknown
Sunlit
N/A
Visualization observer readout
Local Sidereal Time
07:41:30
Azimuth
Unknown
Elevation
Unknown
Doppler factor
Unknown
Orbital elements
Apogee altitude
746.411 km
Perigee altitude
711.304 km
Semi-major axis
7,106.994 km
Eccentricity
0.00247
Inclination
99.0162°
RAAN
274.2934°
Arg. of periapsis
58.499°
True anomaly
301.62022°
Mean anomaly
301.861°
Eccentric anomaly
301.74065°
Mean motion
3.62255 °/min
Orbital period
99.38 mins
BSTAR
0.0023632
Loading maneuver chart data...
Computing Atmospheric mass density...
Loading historical data...
Loading historical data...
Loading historical data...
Loading historical data...
Loading historical data...
Loading historical data...
Loading historical data...

Documentation

Showing up to 5 results
|